Preview of NWS' New Version of Forecast
This preview is not operational and should not be used for support decisions.

Regional Weather Roundup (RWR)

Issued by National Weather Service (NWS)

                            
000
ASUS44 KMEG 210610
RWRTN 
TENNESSEE HOURLY STATE WEATHER ROUNDUP
NATIONAL WEATHER SERVICE MEMPHIS TN
100 AM CDT SAT SEP 21 2019

TNZ002-004-019-021-049-052-054-088>092-210700-
WEST TENNESSEE
  
CITY           SKY/WX    TMP DP  RH WIND       PRES   REMARKS
MEMPHIS INTL   FAIR      76  64  66 S10       30.15F                  
NWS MEMPHIS      N/A     74 N/A N/A MISG        N/A                   
JACKSON        FAIR      71  64  78 S3        30.18S                  
DYERSBURG      FAIR      73  66  78 CALM      30.17S                  
SOMERVILLE     CLEAR     72  63  73 S5        30.16S                  
COVINGTON      CLEAR     72  64  78 CALM      30.15S                  
UNION CITY     CLEAR     70  64  83 CALM      30.15S                  
BOLIVAR        CLEAR     66  64  94 CALM      30.17S                  
PARIS          CLEAR     70  63  78 S6        30.18S                  
HUNTINGDON     PTCLDY    68  64  88 CALM      30.17F                  
LEXINGTON      CLEAR     68  64  88 CALM      30.18S                  
SELMER         CLEAR     70  64  83 SE5       30.18S                  
SAVANNAH       CLEAR     66  64  94 CALM      30.19S                  
$$

TNZ008-025-027-028-033-062-065-066-210700-
NORTH MIDDLE TENNESSEE
  
CITY           SKY/WX    TMP DP  RH WIND       PRES   REMARKS
NASHVILLE      FAIR      72  60  66 S3        30.22S                  
DICKSON        CLEAR     72  59  64 S7        30.21R                  
PORTLAND       CLEAR     68  63  83 S6        30.21S                  
CLARKSVILLE    FAIR      70  64  81 SE3       30.19S                  
LEBANON        CLEAR     73  57  56 S7        30.20S                  
SMYRNA         FAIR      70  61  73 SE5       30.23S                  
MURFREESBORO   MOCLDY    70  59  68 CALM      30.21S                  
LIVINGSTON     CLEAR     70  57  64 SW5       30.26R                  
CROSSVILLE     FAIR      66  55  67 S6        30.31S                  
ROCKWOOD       CLEAR     66  57  72 SW7       30.29S                  
$$

TNZ061-075-076-078-094-096-097-210700-
SOUTH MIDDLE TENNESSEE
  
CITY           SKY/WX    TMP DP  RH WIND       PRES   REMARKS
LAWRENCEBURG   PTCLDY    68  57  68 SE5       30.23R                  
LEWISBURG      CLEAR     66  57  72 CALM      30.22S                  
FAYETTEVILLE   CLEAR     68  57  68 SE3       30.24S                  
TULLAHOMA      CLEAR     68  57  68 CALM      30.25S                  
WINCHESTER     CLEAR     66  55  68 SE3       30.26R                  
MCMINNVILLE    CLEAR     63  59  88 CALM      30.25S                  
COLUMBIA       CLEAR     70  64  83 CALM      30.20S                  
SHELBYVILLE    CLEAR     66  59  77 SE6       30.23S                  
$$

TNZ017-018-042-046-047-210700-
NORTHEAST TENNESSEE
  
CITY           SKY/WX    TMP DP  RH WIND       PRES   REMARKS
TRI CITIES     FAIR      61  58  90 CALM      30.30S                  
ELIZABETHTON   FAIR      64  61  88 CALM      30.31S                  
GREENEVILLE    CLEAR     66  59  77 CALM      30.29S                  
$$

TNZ012-013-036-069-073-074-210700-
CENTRAL EAST TENNESSEE
  
CITY           SKY/WX    TMP DP  RH WIND       PRES   REMARKS
KNOXVILLE      MOCLDY    71  59  65 W5        30.26S                  
OAK RIDGE      FAIR      68  61  78 CALM      30.28F                  
DOWNTOWN KNOXV MOCLDY    66  66 100 CALM      30.27S                  
GATLINBURG     CLOUDY    68  64  88 CALM      30.26F                  
MORRISTOWN     CLOUDY    64  61  88 CALM      30.27S                  
JACKSBORO      CLEAR     63  61  94 CALM      30.30S                  
$$

TNZ083-085-099-210700-
SOUTHEAST TENNESSEE
  
CITY           SKY/WX    TMP DP  RH WIND       PRES   REMARKS
CHATTANOOGA    FAIR      67  60  78 CALM      30.27F                  
$$

SKY/WX REPORTED AS FAIR MEANS FEW OR NO CLOUDS BELOW
12 THOUSAND FEET.